Home   Weather   Völklingen   Past weeks

Flag for Germany Past Weather in Völklingen, Saarland, Germany — Yesterday and Last 2 Weeks

Now
55 °F

Passing clouds.


Feels Like: 55 °F
Forecast: 47 / 70 °F
Wind: 3 mph from Northwest

Location: Saarbruecken / Ensheim

Current Time: Sep 27, 2016 at 4:01:43 AM

Latest Report: Sep 27, 2016 at 3:20 AM


Visibility: N/A

Pressure: 30.21 "Hg

Humidity: 94%

Dew Point: 54 °F

Location of VölklingenLocation

Past Weather in Völklingen — Graph

°F

Völklingen Temperature Yesterday

Maximum temperature yesterday: 64 °F (at 1:50 PM)
Minimum temperature yesterday: 55 °F (at 2:20 AM)
Average temperature yesterday: 59 °F

High & Low Weather Summary for the Past Weeks

 TemperatureHumidityPressure
High88 °F (Sep 12, 3:50 PM)100% (Sep 16, 3:50 AM)30.30 "Hg (Sep 16, 3:50 AM)
Low46 °F (Sep 22, 5:50 AM)27% (Sep 14, 3:50 PM)29.80 "Hg (Sep 15, 3:20 AM)
Average62 °F75%30.06 "Hg
* Reported Sep 12 2:20 AM — Sep 27 2:50 AM, Völklingen, Weather by CustomWeather, © 2016

Note: Actual official high and low records may vary slightly from our data, if they occured in-between our weather recording intervals... More about our weather records

Advertising

Völklingen Weather History for the Previous 24 Hours

Scroll right to see more
 ConditionsComfort  
Time TempWeatherWind HumidityBarometerVisibility
2:50 AM
Tue, Sep 27
55 °FPartly cloudy.2 mph94%30.21 "HgN/A
2:20 AM57 °FPassing clouds.3 mph88%30.21 "HgN/A
1:50 AM57 °FPassing clouds.5 mph88%30.21 "HgN/A
1:20 AM57 °FPassing clouds.3 mph88%30.21 "Hg4 mi
12:50 AM57 °FPassing clouds.3 mph88%30.21 "HgN/A
12:20 AM57 °FClear.1 mph88%30.21 "Hg10 mi
11:50 PM
Mon, Sep 26
57 °FPassing clouds.2 mph88%30.21 "HgN/A
11:20 PM57 °FPartly cloudy.3 mph88%30.21 "HgN/A
10:50 PM59 °FPartly cloudy.2 mph88%30.21 "HgN/A
10:20 PM59 °FPassing clouds.1 mph88%30.21 "HgN/A
9:50 PM59 °FPassing clouds.5 mph88%30.21 "HgN/A
9:20 PM59 °FPassing clouds.1 mph88%30.21 "HgN/A
8:50 PM61 °FPassing clouds.5 mph83%30.21 "HgN/A
8:20 PM61 °FPassing clouds.1 mph83%30.21 "HgN/A
7:50 PM61 °FPassing clouds.1 mph83%30.18 "HgN/A
7:20 PM63 °FPassing clouds.No wind73%30.18 "HgN/A
6:50 PM63 °FBroken clouds.No wind73%30.18 "HgN/A
6:20 PM64 °FBroken clouds.2 mph68%30.18 "HgN/A
5:50 PM64 °FBroken clouds.2 mph68%30.18 "HgN/A
5:20 PM64 °FBroken clouds.3 mph68%30.18 "HgN/A
4:50 PM64 °FPartly sunny.5 mph68%30.18 "HgN/A
4:20 PM64 °FPartly sunny.6 mph68%30.18 "HgN/A
3:50 PM64 °FBroken clouds.5 mph68%30.18 "HgN/A
3:20 PM64 °FPartly sunny.6 mph68%30.18 "HgN/A
2:50 PM64 °FBroken clouds.3 mph68%30.18 "HgN/A
2:20 PM64 °FPartly sunny.2 mph68%30.21 "HgN/A
1:50 PM64 °FPartly sunny.3 mph68%30.21 "HgN/A
1:20 PM63 °FPartly sunny.3 mph73%30.21 "HgN/A
12:50 PM63 °FScattered clouds.3 mph73%30.21 "HgN/A
12:20 PM61 °FScattered clouds.6 mph77%30.21 "HgN/A
11:50 AM61 °FScattered clouds.3 mph77%30.21 "HgN/A
11:20 AM59 °FPassing clouds.3 mph77%30.21 "HgN/A
10:50 AM57 °FPassing clouds.3 mph82%30.24 "HgN/A
10:20 AM57 °FSunny.2 mph82%30.24 "Hg10 mi
9:50 AM57 °FSunny.2 mph82%30.21 "Hg10 mi
9:20 AM55 °FSunny.3 mph94%30.21 "Hg10 mi
8:50 AM55 °FPassing clouds.3 mph94%30.21 "HgN/A
8:20 AM55 °FPartly sunny.3 mph88%30.21 "HgN/A
7:50 AM55 °FPartly sunny.2 mph88%30.21 "HgN/A
7:20 AM55 °FLight rain. Partly cloudy.3 mph88%30.21 "HgN/A
6:50 AM55 °FLight rain. Passing clouds.3 mph88%30.21 "HgN/A
6:20 AM57 °FLight rain. Passing clouds.5 mph82%30.21 "HgN/A
5:50 AM57 °FScattered showers. Passing clouds.5 mph82%30.21 "HgN/A
5:20 AM57 °FPartly cloudy.5 mph88%30.21 "HgN/A
4:50 AM57 °FPassing clouds.6 mph88%30.21 "HgN/A
4:20 AM57 °FPassing clouds.6 mph88%30.18 "HgN/A
Weather by CustomWeather, © 2016

See weather overviewHow to use our weather pages